Time,TemperatureF,DewpointF,PressureIn,WindDirection,WindDirectionDegrees,WindSpeedMPH,WindSpeedGustMPH,Humidity,HourlyPrecipIn,Conditions,Clouds,dailyrainin,SoftwareType,DateUTC
2013-10-12 00:07:00,52.7,45.0,30.10,East,81,2.0,3.0,76,0.00,,,0.00,weatherlink.com 1.10,2013-10-12 04:07:00,
2013-10-12 00:22:00,52.4,45.0,30.10,East,81,1.0,3.0,75,0.00,,,0.00,weatherlink.com 1.10,2013-10-12 04:22:00,
2013-10-12 00:37:00,52.1,44.0,30.10,East,81,3.0,3.0,75,0.00,,,0.00,weatherlink.com 1.10,2013-10-12 04:37:00,
2013-10-12 00:52:00,52.0,44.0,30.10,East,81,0.0,3.0,75,0.00,,,0.00,weatherlink.com 1.10,2013-10-12 04:52:00,
2013-10-12 01:07:00,51.9,45.0,30.10,East,81,0.0,2.0,76,0.00,,,0.00,weatherlink.com 1.10,2013-10-12 05:07:00,
2013-10-12 01:22:00,51.6,45.0,30.11,East,81,1.0,2.0,77,0.00,,,0.00,weatherlink.com 1.10,2013-10-12 05:22:00,
2013-10-12 01:37:00,51.9,45.0,30.10,East,81,0.0,2.0,78,0.00,,,0.00,weatherlink.com 1.10,2013-10-12 05:37:00,
2013-10-12 01:52:00,51.8,45.0,30.11,East,81,0.0,1.0,78,0.00,,,0.00,weatherlink.com 1.10,2013-10-12 05:52:00,
2013-10-12 02:07:00,51.8,46.0,30.10,East,81,0.0,3.0,79,0.00,,,0.00,weatherlink.com 1.10,2013-10-12 06:07:00,
2013-10-12 02:22:00,51.6,45.0,30.11,East,81,1.0,1.0,79,0.00,,,0.00,weatherlink.com 1.10,2013-10-12 06:22:00,
2013-10-12 02:37:00,51.3,45.0,30.11,East,101,1.0,3.0,79,0.00,,,0.00,weatherlink.com 1.10,2013-10-12 06:37:00,
2013-10-12 02:52:00,51.5,46.0,30.11,ESE,115,1.0,4.0,80,0.00,,,0.00,weatherlink.com 1.10,2013-10-12 06:52:00,
2013-10-12 03:07:00,50.9,46.0,30.11,ESE,105,1.0,5.0,82,0.00,,,0.00,weatherlink.com 1.10,2013-10-12 07:07:00,
2013-10-12 03:22:00,50.8,46.0,30.11,NE,55,3.0,3.0,82,0.00,,,0.00,weatherlink.com 1.10,2013-10-12 07:22:00,
2013-10-12 03:37:00,51.2,46.0,30.12,ESE,113,0.0,4.0,81,0.00,,,0.00,weatherlink.com 1.10,2013-10-12 07:37:00,
2013-10-12 03:52:00,51.2,46.0,30.12,East,92,0.0,3.0,81,0.00,,,0.00,weatherlink.com 1.10,2013-10-12 07:52:00,
2013-10-12 04:07:00,51.0,46.0,30.12,East,83,0.0,2.0,82,0.00,,,0.00,weatherlink.com 1.10,2013-10-12 08:07:00,
2013-10-12 04:22:00,50.2,46.0,30.12,East,83,0.0,1.0,84,0.00,,,0.00,weatherlink.com 1.10,2013-10-12 08:22:00,
2013-10-12 04:38:00,49.5,45.0,30.12,East,83,2.0,2.0,84,0.00,,,0.00,weatherlink.com 1.10,2013-10-12 08:38:00,
2013-10-12 04:53:00,49.5,45.0,30.13,East,83,0.0,2.0,84,0.00,,,0.00,weatherlink.com 1.10,2013-10-12 08:53:00,
2013-10-12 05:08:00,49.4,45.0,30.13,East,90,0.0,5.0,84,0.00,,,0.00,weatherlink.com 1.10,2013-10-12 09:08:00,
2013-10-12 05:23:00,49.0,45.0,30.14,East,94,1.0,3.0,85,0.00,,,0.00,weatherlink.com 1.10,2013-10-12 09:23:00,
2013-10-12 05:38:00,48.7,44.0,30.14,East,86,0.0,5.0,85,0.00,,,0.00,weatherlink.com 1.10,2013-10-12 09:38:00,
2013-10-12 05:53:00,48.3,44.0,30.14,East,85,0.0,2.0,86,0.00,,,0.00,weatherlink.com 1.10,2013-10-12 09:53:00,
2013-10-12 06:08:00,48.0,44.0,30.14,East,91,2.0,5.0,86,0.00,,,0.00,weatherlink.com 1.10,2013-10-12 10:08:00,
2013-10-12 06:23:00,48.1,44.0,30.15,East,90,3.0,3.0,86,0.00,,,0.00,weatherlink.com 1.10,2013-10-12 10:23:00,
2013-10-12 06:38:00,47.9,44.0,30.15,East,90,0.0,3.0,86,0.00,,,0.00,weatherlink.com 1.10,2013-10-12 10:38:00,
2013-10-12 06:53:00,47.5,44.0,30.15,East,90,1.0,3.0,87,0.00,,,0.00,weatherlink.com 1.10,2013-10-12 10:53:00,
2013-10-12 07:08:00,46.7,43.0,30.16,East,90,1.0,2.0,88,0.00,,,0.00,weatherlink.com 1.10,2013-10-12 11:08:00,
2013-10-12 07:23:00,46.6,44.0,30.16,East,90,0.0,3.0,89,0.00,,,0.00,weatherlink.com 1.10,2013-10-12 11:23:00,
2013-10-12 07:38:00,46.8,44.0,30.16,East,90,0.0,2.0,89,0.00,,,0.00,weatherlink.com 1.10,2013-10-12 11:38:00,
2013-10-12 07:53:00,46.4,44.0,30.17,East,90,1.0,3.0,90,0.00,,,0.00,weatherlink.com 1.10,2013-10-12 11:53:00,
2013-10-12 08:08:00,46.6,44.0,30.17,East,90,0.0,0.0,90,0.00,,,0.00,weatherlink.com 1.10,2013-10-12 12:08:00,
2013-10-12 08:23:00,47.1,44.0,30.17,East,90,0.0,5.0,90,0.00,,,0.00,weatherlink.com 1.10,2013-10-12 12:23:00,
2013-10-12 08:38:00,48.9,46.0,30.18,NE,55,0.0,4.0,88,0.00,,,0.00,weatherlink.com 1.10,2013-10-12 12:38:00,
2013-10-12 08:53:00,50.5,47.0,30.18,NE,55,0.0,3.0,87,0.00,,,0.00,weatherlink.com 1.10,2013-10-12 12:53:00,
2013-10-12 09:08:00,52.2,49.0,30.18,NE,55,0.0,2.0,87,0.00,,,0.00,weatherlink.com 1.10,2013-10-12 13:08:00,
2013-10-12 09:23:00,54.7,50.0,30.18,ENE,57,2.0,4.0,84,0.00,,,0.00,weatherlink.com 1.10,2013-10-12 13:23:00,
2013-10-12 09:38:00,57.1,51.0,30.19,NNE,20,3.0,5.0,80,0.00,,,0.00,weatherlink.com 1.10,2013-10-12 13:38:00,
2013-10-12 09:53:00,59.0,52.0,30.19,ENE,74,2.0,6.0,77,0.00,,,0.00,weatherlink.com 1.10,2013-10-12 13:53:00,
2013-10-12 10:08:00,61.1,52.0,30.18,ENE,67,1.0,5.0,73,0.00,,,0.00,weatherlink.com 1.10,2013-10-12 14:08:00,
2013-10-12 10:24:00,63.3,52.0,30.19,NE,46,0.0,6.0,67,0.00,,,0.00,weatherlink.com 1.10,2013-10-12 14:24:00,
2013-10-12 10:39:00,65.2,53.0,30.19,ENE,69,1.0,6.0,65,0.00,,,0.00,weatherlink.com 1.10,2013-10-12 14:39:00,
2013-10-12 10:54:00,66.9,54.0,30.19,NE,37,1.0,6.0,63,0.00,,,0.00,weatherlink.com 1.10,2013-10-12 14:54:00,
2013-10-12 11:09:00,68.5,54.0,30.19,SE,129,6.0,14.0,60,0.00,,,0.00,weatherlink.com 1.10,2013-10-12 15:09:00,
2013-10-12 11:24:00,69.4,56.0,30.19,SE,135,0.0,8.0,62,0.00,,,0.00,weatherlink.com 1.10,2013-10-12 15:24:00,
2013-10-12 11:39:00,70.1,54.0,30.19,SE,145,1.0,15.0,58,0.00,,,0.00,weatherlink.com 1.10,2013-10-12 15:39:00,
2013-10-12 11:54:00,71.5,55.0,30.19,ESE,121,3.0,8.0,56,0.00,,,0.00,weatherlink.com 1.10,2013-10-12 15:54:00,
2013-10-12 12:09:00,71.4,55.0,30.20,SSE,156,2.0,14.0,56,0.00,,,0.00,weatherlink.com 1.10,2013-10-12 16:09:00,
2013-10-12 12:24:00,72.4,54.0,30.19,SE,132,6.0,14.0,53,0.00,,,0.00,weatherlink.com 1.10,2013-10-12 16:24:00,
2013-10-12 12:39:00,72.6,54.0,30.19,South,178,5.0,12.0,52,0.00,,,0.00,weatherlink.com 1.10,2013-10-12 16:39:00,
2013-10-12 12:54:00,72.1,55.0,30.18,ENE,61,3.0,11.0,55,0.00,,,0.00,weatherlink.com 1.10,2013-10-12 16:54:00,
2013-10-12 13:09:00,72.8,54.0,30.18,ESE,112,9.0,12.0,52,0.00,,,0.00,weatherlink.com 1.10,2013-10-12 17:09:00,
2013-10-12 13:24:00,72.3,54.0,30.17,SE,124,4.0,14.0,53,0.00,,,0.00,weatherlink.com 1.10,2013-10-12 17:24:00,
2013-10-12 13:39:00,71.7,55.0,30.17,SE,142,1.0,12.0,55,0.00,,,0.00,weatherlink.com 1.10,2013-10-12 17:39:00,
2013-10-12 13:54:00,72.6,55.0,30.17,SE,132,5.0,11.0,55,0.00,,,0.00,weatherlink.com 1.10,2013-10-12 17:54:00,
2013-10-12 14:09:00,73.5,56.0,30.17,ESE,115,2.0,8.0,55,0.00,,,0.00,weatherlink.com 1.10,2013-10-12 18:09:00,
2013-10-12 14:24:00,72.9,56.0,30.17,SSE,155,6.0,9.0,56,0.00,,,0.00,weatherlink.com 1.10,2013-10-12 18:24:00,
2013-10-12 14:39:00,71.8,56.0,30.17,East,89,3.0,12.0,58,0.00,,,0.00,weatherlink.com 1.10,2013-10-12 18:39:00,
2013-10-12 14:54:00,69.8,56.0,30.17,South,169,3.0,13.0,61,0.00,,,0.00,weatherlink.com 1.10,2013-10-12 18:54:00,
2013-10-12 15:09:00,68.9,55.0,30.18,SE,128,4.0,12.0,61,0.00,,,0.00,weatherlink.com 1.10,2013-10-12 19:09:00,
2013-10-12 15:24:00,69.6,56.0,30.18,SE,136,3.0,11.0,63,0.00,,,0.00,weatherlink.com 1.10,2013-10-12 19:24:00,
2013-10-12 15:39:00,68.3,55.0,30.18,SE,126,4.0,13.0,63,0.00,,,0.00,weatherlink.com 1.10,2013-10-12 19:39:00,
2013-10-12 15:54:00,67.3,56.0,30.19,SE,133,2.0,14.0,67,0.00,,,0.00,weatherlink.com 1.10,2013-10-12 19:54:00,
2013-10-12 16:09:00,67.4,56.0,30.19,SE,141,4.0,13.0,68,0.00,,,0.00,weatherlink.com 1.10,2013-10-12 20:09:00,
2013-10-12 16:24:00,67.2,56.0,30.19,ESE,123,5.0,10.0,68,0.00,,,0.00,weatherlink.com 1.10,2013-10-12 20:24:00,
2013-10-12 16:39:00,67.0,56.0,30.20,ESE,123,8.0,14.0,67,0.00,,,0.00,weatherlink.com 1.10,2013-10-12 20:39:00,
2013-10-12 16:54:00,64.4,55.0,30.20,SE,129,7.0,13.0,72,0.00,,,0.00,weatherlink.com 1.10,2013-10-12 20:54:00,
2013-10-12 17:09:00,63.6,55.0,30.20,SSW,202,4.0,9.0,74,0.00,,,0.00,weatherlink.com 1.10,2013-10-12 21:09:00,
2013-10-12 17:24:00,63.0,55.0,30.21,ESE,115,3.0,9.0,75,0.00,,,0.00,weatherlink.com 1.10,2013-10-12 21:24:00,
2013-10-12 17:39:00,62.4,55.0,30.22,East,101,1.0,10.0,77,0.00,,,0.00,weatherlink.com 1.10,2013-10-12 21:39:00,
2013-10-12 17:55:00,62.0,55.0,30.22,ESE,111,2.0,11.0,77,0.00,,,0.00,weatherlink.com 1.10,2013-10-12 21:55:00,
2013-10-12 18:10:00,61.3,54.0,30.23,SE,130,2.0,9.0,78,0.00,,,0.00,weatherlink.com 1.10,2013-10-12 22:10:00,
2013-10-12 18:25:00,60.8,54.0,30.23,ESE,122,1.0,7.0,79,0.00,,,0.00,weatherlink.com 1.10,2013-10-12 22:25:00,
2013-10-12 18:40:00,60.2,54.0,30.23,ESE,123,4.0,7.0,80,0.00,,,0.00,weatherlink.com 1.10,2013-10-12 22:40:00,
2013-10-12 18:55:00,59.2,53.0,30.24,East,97,2.0,7.0,81,0.00,,,0.00,weatherlink.com 1.10,2013-10-12 22:55:00,
2013-10-12 19:10:00,58.5,53.0,30.24,East,87,0.0,6.0,82,0.00,,,0.00,weatherlink.com 1.10,2013-10-12 23:10:00,
2013-10-12 19:25:00,57.8,53.0,30.25,SE,125,2.0,8.0,83,0.00,,,0.00,weatherlink.com 1.10,2013-10-12 23:25:00,
2013-10-12 19:40:00,57.4,53.0,30.26,South,189,1.0,3.0,84,0.00,,,0.00,weatherlink.com 1.10,2013-10-12 23:40:00,
2013-10-12 19:55:00,57.1,53.0,30.25,SE,142,1.0,4.0,85,0.00,,,0.00,weatherlink.com 1.10,2013-10-12 23:55:00,
2013-10-12 20:10:00,56.9,53.0,30.26,ESE,117,0.0,3.0,85,0.00,,,0.00,weatherlink.com 1.10,2013-10-13 00:10:00,
2013-10-12 20:25:00,56.6,52.0,30.26,SSW,193,0.0,6.0,84,0.00,,,0.00,weatherlink.com 1.10,2013-10-13 00:25:00,
2013-10-12 20:40:00,56.4,52.0,30.27,SE,132,0.0,6.0,84,0.00,,,0.00,weatherlink.com 1.10,2013-10-13 00:40:00,
2013-10-12 20:55:00,56.0,52.0,30.27,ENE,63,0.0,3.0,85,0.00,,,0.00,weatherlink.com 1.10,2013-10-13 00:55:00,
2013-10-12 21:10:00,55.7,51.0,30.27,ENE,63,0.0,1.0,85,0.00,,,0.00,weatherlink.com 1.10,2013-10-13 01:10:00,
2013-10-12 21:25:00,55.4,51.0,30.28,ENE,59,0.0,2.0,86,0.00,,,0.00,weatherlink.com 1.10,2013-10-13 01:25:00,
2013-10-12 21:40:00,55.0,51.0,30.28,SSE,164,0.0,3.0,86,0.00,,,0.00,weatherlink.com 1.10,2013-10-13 01:40:00,
2013-10-12 21:55:00,54.8,51.0,30.29,SSE,163,1.0,3.0,86,0.00,,,0.00,weatherlink.com 1.10,2013-10-13 01:55:00,
2013-10-12 22:10:00,54.8,51.0,30.30,SSE,163,0.0,1.0,87,0.00,,,0.00,weatherlink.com 1.10,2013-10-13 02:10:00,
2013-10-12 22:25:00,54.8,51.0,30.30,SSE,149,0.0,3.0,87,0.00,,,0.00,weatherlink.com 1.10,2013-10-13 02:25:00,
2013-10-12 22:40:00,54.8,51.0,30.30,ESE,123,2.0,4.0,87,0.00,,,0.00,weatherlink.com 1.10,2013-10-13 02:40:00,
2013-10-12 22:55:00,54.7,51.0,30.30,SSE,148,0.0,3.0,86,0.00,,,0.00,weatherlink.com 1.10,2013-10-13 02:55:00,
2013-10-12 23:10:00,54.6,51.0,30.30,SSE,148,0.0,1.0,87,0.00,,,0.00,weatherlink.com 1.10,2013-10-13 03:10:00,
2013-10-12 23:25:00,54.5,51.0,30.30,ESE,119,0.0,4.0,87,0.00,,,0.00,weatherlink.com 1.10,2013-10-13 03:25:00,
2013-10-12 23:40:00,54.8,51.0,30.30,SE,126,0.0,6.0,86,0.00,,,0.00,weatherlink.com 1.10,2013-10-13 03:40:00,
2013-10-12 23:55:00,55.1,51.0,30.30,ESE,117,0.0,8.0,86,0.00,,,0.00,weatherlink.com 1.10,2013-10-13 03:55:00,